Location: Angwan Shehu
(11.2514°N, 7.4613°E)
Time: 02:20:22
(UTC+00:00)

Transit 4A - All Passes

Search period start: 21 April 2021 00:00
Search period end: 01 May 2021 00:00
Orbit: 869 x 975 km, 66.8° (Epoch: 20 April)

Date Brightness Start Highest point End Pass type
(mag) Time Alt. Az. Time Alt. Az. Time Alt. Az.
21 Apr - 08:28:02 10° N 08:33:43 56° ENE 08:39:23 10° SSE daylight
21 Apr - 10:18:38 10° W 10:19:37 10° WSW 10:20:34 10° WSW daylight
21 Apr - 21:31:30 10° SSW 21:37:50 70° WNW 21:44:04 10° NNE night (unlit)
22 Apr - 08:37:10 10° NNW 08:42:57 85° WSW 08:48:48 10° SSE daylight
22 Apr - 19:56:58 10° SSE 20:01:06 18° ESE 20:05:11 10° ENE night (unlit)
22 Apr - 21:41:11 10° SW 21:47:08 42° WNW 21:52:59 10° N night (unlit)
23 Apr - 07:03:21 10° NE 07:05:55 13° ENE 07:08:29 10° E daylight
23 Apr - 08:46:38 10° NW 08:52:11 49° WSW 08:57:47 10° S daylight
23 Apr - 20:04:50 10° SSE 20:10:19 31° ESE 20:15:43 10° NE night (unlit)
23 Apr - 21:51:23 10° WSW 21:56:27 25° WNW 22:01:28 10° NNW night (unlit)
24 Apr - 07:10:49 10° NNE 07:15:19 23° ENE 07:19:47 10° ESE daylight
24 Apr - 08:56:32 10° NW 09:01:24 28° WSW 09:06:17 10° SSW daylight
24 Apr - 20:13:24 10° S 20:19:33 51° ESE 20:25:35 10° NE night (unlit)
24 Apr - 22:02:28 10° W 22:05:51 15° WNW 22:09:13 10° NNW night (unlit)
25 Apr - 07:19:15 10° N 07:24:38 39° ENE 07:30:01 10° SE daylight
25 Apr - 09:07:12 10° WNW 09:10:36 16° WSW 09:14:00 10° SW daylight
25 Apr - 20:22:25 10° SSW 20:28:48 86° ESE 20:35:03 10° NNE night (unlit)
26 Apr - 07:28:10 10° NNW 07:33:55 68° ENE 07:39:42 10° SSE daylight
26 Apr - 18:49:40 10° SE 18:52:06 12° ESE 18:54:31 10° E night (unlit)
26 Apr - 20:31:50 10° SSW 20:38:04 58° WNW 20:44:12 10° N visible
27 Apr - 07:37:24 10° NNW 07:43:09 70° WSW 07:48:57 10° SSE daylight
27 Apr - 18:56:35 10° SSE 19:01:19 22° ESE 19:05:58 10° ENE visible
27 Apr - 20:41:42 10° SW 20:47:22 35° WNW 20:52:58 10° N visible
28 Apr - 06:02:43 10° NNE 06:06:11 16° ENE 06:09:38 10° ESE daylight
28 Apr - 07:47:00 10° NW 07:52:22 40° WSW 07:57:48 10° S daylight
28 Apr - 19:04:46 10° S 19:10:32 37° ESE 19:16:12 10° NE visible
28 Apr - 20:52:07 10° WSW 20:56:43 21° WNW 21:01:16 10° NNW visible
29 Apr - 06:10:40 10° N 06:15:32 28° ENE 06:20:25 10° SE daylight
29 Apr - 07:57:07 10° WNW 08:01:34 23° WSW 08:06:05 10° SSW daylight
29 Apr - 19:13:30 10° S 19:19:46 62° ESE 19:25:55 10° NNE visible
29 Apr - 21:03:54 10° W 21:06:08 12° WNW 21:08:22 10° NW visible
30 Apr - 06:19:17 10° N 06:24:51 47° ENE 06:30:26 10° SE daylight
30 Apr - 08:08:19 10° W 08:10:47 13° WSW 08:13:15 10° SW daylight
30 Apr - 19:22:40 10° SSW 19:29:01 80° WNW 19:35:16 10° NNE visible
